This is the latest recevied weather packets stored in our database for station/object K8GLX. If no packets are shown the sender has not sent any weather packets the latest 10 day(s).
| Time | Temp. | Humidity | Pressure | Rain* | Wind** | Luminosity | Snow |
|---|---|---|---|---|---|---|---|
| 1777420028 | 15° C | 78% | 1013.3 hPa | 0 mm | - | 23 W/m² | - |
| 1777419735 | 15° C | 78% | 1013.4 hPa | 0 mm | - | 29 W/m² | - |
| 1777419428 | 15.56° C | 77% | 1013.3 hPa | 0 mm | - | 31 W/m² | - |
| 1777419134 | 15° C | 77% | 1013.3 hPa | 0 mm | - | 35 W/m² | - |
| 1777418828 | 15° C | 78% | 1013.4 hPa | 0 mm | - | 36 W/m² | - |
| 1777418535 | 15° C | 78% | 1013 hPa | 0 mm | - | 40 W/m² | - |
| 1777418228 | 15° C | 77% | 1013.2 hPa | 0 mm | - | 47 W/m² | - |
| 1777417934 | 15.56° C | 77% | 1013.2 hPa | 0 mm | - | 46 W/m² | - |
| 1777417628 | 15.56° C | 77% | 1013.1 hPa | 0 mm | - | 46 W/m² | - |
| 1777417334 | 15.56° C | 77% | 1013 hPa | 0 mm | - | 52 W/m² | - |
| 1777417028 | 15.56° C | 77% | 1012.7 hPa | 0 mm | - | 69 W/m² | - |
| 1777416736 | 16.11° C | 75% | 1012.9 hPa | 0 mm | - | 65 W/m² | - |
| 1777416428 | 15.56° C | 76% | 1012.7 hPa | 0 mm | - | 94 W/m² | - |
| 1777416133 | 16.11° C | 75% | 1012.9 hPa | 0 mm | - | 92 W/m² | - |
| 1777415828 | 16.11° C | 74% | 1012.7 hPa | 0 mm | - | 87 W/m² | - |
| 1777415534 | 16.67° C | 73% | 1012.9 hPa | 0 mm | - | 136 W/m² | - |
| 1777415228 | 16.67° C | 73% | 1012.6 hPa | 0 mm | - | 164 W/m² | - |
| 1777414933 | 16.67° C | 73% | 1012.8 hPa | 0 mm | - | 182 W/m² | - |
| 1777414628 | 16.67° C | 73% | 1012.5 hPa | 0 mm | - | 193 W/m² | - |
| 1777414334 | 16.67° C | 73% | 1012.5 hPa | 0 mm | - | 207 W/m² | - |
| 1777414028 | 16.67° C | 74% | 1012.5 hPa | 0 mm | - | 221 W/m² | - |
| 1777413734 | 16.11° C | 73% | 1012.5 hPa | 0 mm | - | 235 W/m² | - |
| 1777413428 | 16.67° C | 73% | 1012.5 hPa | 0 mm | - | 252 W/m² | - |
| 1777413262 | 16.67° C | 74% | 1012.3 hPa | 0 mm | - | 270 W/m² | - |
| 1777412828 | 16.67° C | 73% | 1012.2 hPa | 0 mm | - | 285 W/m² | - |
* Rain latest hour (hover to see other rain measurements)
** Current wind speed in m/s (hover to see current wind gust speed)